Simultaneous Nadir Overpasses (SNOs) Predictions

Prediction of SNOs between LANDSAT-8 and METOP-B Satellite Orbit:

Table of predicted SNOs for the next 14.0 days since TLE Epoch: 10/10/2020
Index Date (LANDSAT-8) Time (LANDSAT-8) Lat,Lon (LANDSAT-8) SZA (LANDSAT-8 ) Date (METOP-B) Time (METOP-B) Lat,Lon (METOP-B) SZA (METOP-B ) Distance(km) Time Diff (sec)
1 10/10/2020 09:41:33 -81.10,-105.74 89.70 10/10/2020 09:40:23 -81.09,-105.87 89.74 2.29 70
2 10/10/2020 10:30:58 81.13, 62.35 90.39 10/10/2020 10:31:01 81.12, 62.30 90.38 1.00 3
3 10/13/2020 05:15:48 -81.11, -39.13 88.60 10/13/2020 05:14:46 -81.11, -39.11 88.63 0.50 62
4 10/13/2020 06:05:14 81.11, 128.57 91.43 10/13/2020 06:05:25 81.12, 128.64 91.45 1.55 11
5 10/16/2020 00:50:03 -81.09, 27.08 87.58 10/16/2020 00:49:09 -81.10, 27.25 87.58 3.23 54
6 10/16/2020 01:39:28 81.12,-164.88 92.50 10/16/2020 01:39:48 81.12,-165.02 92.49 2.36 20
7 10/18/2020 20:24:18 -81.10, 93.62 86.53 10/18/2020 20:23:33 -81.10, 93.61 86.55 0.24 45
8 10/18/2020 21:13:43 81.13, -98.36 93.54 10/18/2020 21:14:11 81.13, -98.31 93.56 0.92 28
9 10/21/2020 15:58:33 -81.11, 160.12 85.51 10/21/2020 15:57:57 -81.10, 159.95 85.55 2.97 36
